Regional Weather Roundup
Issued by NWS

Home | Current Version | Previous Version | Text Only | Print | Product List | Glossary On
Versions: 1 2 3 4 5 6 7 8 9 10 11 12 13 14 15 16 17 18 19 20 21 22 23 24 25 26 27 28 29 30 31 32 33 34 35 36 37 38 39 40 41 42 43 44 45 46 47 48 49 50
000
ASUS44 KOUN 201410
RWROK

WEATHER ROUNDUP FOR OKLAHOMA
NATIONAL WEATHER SERVICE NORMAN OK
900 AM CDT SUN APR 20 2014

NOTE: "FAIR" INDICATES FEW OR NO CLOUDS BELOW 12,000 FEET WITH NO
      SIGNIFICANT WEATHER AND/OR OBSTRUCTIONS TO VISIBILITY.

OKZ001>007-009>012-014-015-017-201500-
NORTHWEST OKLAHOMA AND THE PANHANDLE

CITY           SKY/WX    TMP DP  RH WIND       PRES   REMARKS
GAGE           CLOUDY    63  51  65 S13       30.06R
ENID/VANCE AFB CLOUDY    63  59  85 S10       30.07F
ENID/WOODRING  CLOUDY    63  54  72 S17       30.08S
$$

OKZ016-021>023-033>039-044-045-201500-
SOUTHWEST OKLAHOMA

CITY           SKY/WX    TMP DP  RH WIND       PRES   REMARKS
LAWTON/REGL    CLOUDY    62  56  80 SE3       30.10R
LAWTON/FT SILL CLOUDY    61  55  80 S6        30.09R
FREDERICK      LGT RAIN  60  58  92 E7        30.06S FOG
CLINTON        CLOUDY    62  56  80 S12       30.10R
HOBART         CLOUDY    58  56  93 S5        30.09R FOG
ALTUS AFB      CLOUDY    59  59 100 SE8       30.08S
$$

OKZ018>020-024>031-201500-
CENTRAL OKLAHOMA

CITY           SKY/WX    TMP DP  RH WIND       PRES   REMARKS
OKLAHOMA CITY  CLOUDY    61  54  77 S10       30.10F
OKC/WILEY POST CLOUDY    63  54  72 S16       30.09F
OKC/TINKER AFB CLOUDY    60  55  82 S10       30.10F
STILLWATER     CLOUDY    65  52  62 S10       30.11S
GUTHRIE        LGT RAIN  63  54  72 S8        30.10S
$$

OKZ008-013-054>072-201500-
NORTHEAST OKLAHOMA

CITY           SKY/WX    TMP DP  RH WIND       PRES   REMARKS
TULSA          CLOUDY    63  54  72 S8        30.13S
TULSA/JONES    CLOUDY    64  53  67 S3        30.14S
PONCA CITY     CLOUDY    66  50  56 S12G18    30.10R
BARTLESVILLE   CLOUDY    60  52  74 S7        30.14S HAZE
MUSKOGEE       CLOUDY    61  54  77 SE8       30.16S
$$

OKZ032-040>043-046>053-073>077-201500-
SOUTH CENTRAL/SOUTHEAST OKLAHOMA

CITY           SKY/WX    TMP DP  RH WIND       PRES   REMARKS
ARDMORE/DWNTWN   N/A     61  54  77 CALM      30.12F
MCALESTER      CLOUDY    64  52  64 SE6       30.15R
$$




USA.gov is the U.S. government's official web portal to all federal, state and local government web resources and services.